User: anonymous   Login
Location: Unspecified
(0.0000°N, 0.0000°E)
Time: 18:02:45
(UTC+00:00)
Language:

USA 82 - Orbit

View from above orbital plane
View from above orbital plane
View from above satellite
View from above satellite

Ground track
Ground track

The orbit data is extracted from the following two-line orbital elements,

1 22009U 92037A   17321.26878273 0.00000000  00000-0  00000-0 0    04
2 22009  11.9972  32.6640 0011162 287.1664  72.7235  0.98802150    09
Epoch (UTC): 17 November 2017 06:27:02
Eccentricity: 0.0011162
inclination: 11.9972°
perigee height: 36156 km
apogee height: 36251 km
right ascension of ascending node: 32.6640°
argument of perigee: 287.1664°
revolutions per day: 0.98802150
mean anomaly at epoch: 72.7235°
orbit number at epoch: 0

The dashed part of the orbit path shows where the satellite is in the earth's shadow,  

DLR